#timestamp,LO_Frequency,Hit,StdDev 
1639094415.4,286047009.6,N
1639094435.2,286047007.9,N
1639094455.1,286047007.4,N
1639094456.0,286047007.4,N
1639094475.8,286047003.1,N
1639094495.6,286047005.5,N
1639094515.5,286047003.1,N
1639094535.3,286047004.3,N
1639094555.1,286047004.0,N
1639094575.9,286047002.5,N
1639094595.7,286046999.8,N
1639094615.6,286047000.4,N
1639094635.4,286047000.1,N
1639094655.2,286047000.3,N
1639094675.1,286046999.7,N
1639094676.0,286046999.7,N
1639094695.8,286047002.6,N
1639094715.7,286047002.3,N
1639094735.5,286047002.2,N
1639094755.3,286047000.0,N
1639094775.2,286047000.3,N
1639094795.9,286047000.3,N
1639094815.7,286047000.3,N
1639094835.6,286046998.1,N
1639094855.4,286047000.0,N
1639094875.2,286047000.1,N
1639094895.1,286047000.5,N
1639094896.0,286047000.5,N
1639094915.8,286046999.1,N
1639094935.7,286046997.4,N
1639094955.5,286046996.8,N
1639094975.4,286046997.3,N
1639094995.2,286046997.2,N
1639095015.0,286046996.5,N
1639095015.9,286046996.5,N
1639095035.8,286046998.8,N
1639095055.6,286046998.9,N
1639095075.4,286046998.5,N
1639095095.3,286046998.7,N
1639095115.1,286047000.7,N
1639095135.9,286046998.5,N
1639095155.7,286046998.1,N
1639095175.5,286046998.1,N
1639095195.4,286047000.8,N
1639095215.2,286047001.1,N
1639095235.0,286047000.5,N
1639095236.0,286047000.5,N
1639095255.8,286047000.5,N
1639095275.6,286046999.4,N
1639095295.5,286046997.0,N
1639095315.3,286046998.9,N
1639095335.1,286046998.6,N
1639095355.9,286047001.1,N
1639095375.7,286046998.1,N
1639095395.6,286047001.1,N
1639095415.4,286047000.8,N
1639095435.2,286046998.5,N
1639095455.1,286047001.2,N
1639095456.0,286047001.2,N
1639095475.8,286046998.4,N
1639095495.6,286046998.6,N
1639095515.5,286046999.3,N
1639095535.3,286046999.3,N
1639095555.2,286046998.8,N
1639095575.9,286046998.7,N
1639095595.7,286046999.6,N
1639095615.6,286046997.0,N
1639095635.4,286046998.1,N
1639095655.2,286047001.1,N
1639095675.1,286046998.2,N
1639095676.0,286046998.2,N
1639095695.8,286046998.2,N
1639095715.7,286047000.7,N
1639095735.9,286047000.7,N
1639095755.7,286046998.5,N
1639095775.6,286047000.9,N
1639095795.4,286046999.0,N
1639095815.2,286046998.3,N
1639095835.1,286046998.5,N
1639095836.0,286046998.5,N
1639095855.8,286046998.2,N
1639095875.7,286047000.0,N
1639095895.5,286047000.5,N
1639095915.3,286047000.1,N
1639095935.2,286047000.3,N
1639095955.0,286047001.1,N
1639095955.9,286047001.1,N
1639095975.7,286047001.2,N
1639095995.6,286047000.9,N
1639096015.4,286047000.8,N
1639096035.3,286047000.5,N
1639096055.1,286047000.9,N
1639096056.0,286047000.9,N
1639096075.8,286046998.4,N
1639096095.7,286046998.6,N
1639096115.5,286047000.4,N
1639096135.3,286047000.0,N
1639096155.2,286047000.2,N
1639096175.0,286047002.7,N
1639096175.9,286047002.7,N
1639096195.8,286047002.3,N
1639096215.6,286047000.2,N
1639096235.4,286047002.2,N
1639096255.3,286047000.3,N
1639096275.1,286047000.0,N
1639096295.8,286047002.3,N
1639096315.7,286046999.9,N
1639096335.5,286047000.3,N
1639096355.4,286046999.7,N
1639096375.2,286047002.8,N
1639096395.0,286047000.4,N
1639096395.9,286047000.4,N
1639096415.8,286047000.7,N
1639096435.6,286047000.6,N
1639096455.4,286047000.8,N
1639096475.3,286046998.7,N
1639096495.1,286047001.0,N
1639096515.9,286046998.2,N
1639096535.7,286046998.1,N
1639096555.5,286046998.9,N
1639096575.4,286046998.5,N
1639096595.2,286047000.6,N
1639096615.1,286046999.8,N
1639096616.0,286046999.8,N
1639096635.8,286047002.8,N
1639096655.6,286046999.7,N
1639096675.5,286047002.4,N
1639096695.3,286046999.7,N
1639096715.1,286047001.9,N
1639096735.9,286047002.3,N
1639096755.7,286047002.4,N
1639096775.6,286047000.4,N
1639096795.4,286047001.0,N
1639096815.2,286046998.1,N
1639096835.1,286046998.6,N
1639096836.0,286046998.6,N
1639096855.8,286047000.2,N
1639096875.6,286047001.2,N
1639096895.5,286047000.3,N
1639096915.3,286047000.4,N
1639096935.2,286047002.3,N
1639096955.9,286047000.5,N
1639096975.7,286046999.9,N
1639096995.6,286047000.1,N
1639097015.4,286047000.2,N
1639097035.2,286047001.0,N
1639097055.1,286046998.2,N
1639097056.0,286046998.2,N
1639097075.8,286046998.1,N
1639097095.7,286047000.5,N
1639097115.5,286047000.8,N
1639097135.3,286047000.9,N
1639097155.2,286047000.9,N
1639097175.0,286047000.2,N
1639097175.9,286047000.2,N
1639097195.7,286047000.0,N
1639097215.6,286047000.5,N
1639097235.4,286047000.7,N
1639097255.3,286047000.8,N
1639097275.1,286047000.8,N
1639097295.8,286046998.1,N
1639097315.7,286047000.9,N
1639097335.5,286046998.3,N
1639097355.4,286046998.4,N
1639097375.2,286046998.6,N
1639097395.0,286047000.6,N
1639097395.9,286047000.6,N
1639097415.8,286046999.9,N
1639097435.6,286047000.1,N
1639097455.5,286047000.1,N
1639097475.3,286047002.3,N
1639097495.1,286047001.3,N
1639097515.9,286047001.3,N
1639097535.7,286047002.4,N
1639097555.5,286047001.8,N
1639097575.4,286047002.0,N
1639097595.2,286047002.8,N
1639097615.1,286047002.7,N
1639097616.0,286047002.7,N
1639097635.8,286047000.3,N
1639097655.6,286047000.0,N
1639097675.5,286047002.5,N
1639097695.3,286047002.3,N
1639097715.1,286046999.7,N
1639097735.9,286046999.8,N
1639097755.7,286047002.3,N
1639097775.6,286047000.1,N
1639097795.4,286047002.7,N
1639097815.2,286046999.9,N
1639097835.1,286047002.6,N
1639097836.0,286047002.6,N
1639097855.8,286047002.4,N
1639097875.7,286047002.6,N
1639097895.5,286047002.3,N
1639097915.3,286047001.9,N
1639097935.2,286047002.7,N
1639097955.0,286047002.8,N
1639097955.9,286047002.8,N
1639097975.7,286047002.7,N
1639097995.6,286047002.4,N
